Flag for Canada Weather past 2 weeks in Peterborough, Ontario, Canada

Now
68 °F

Thunderstorms. Overcast.


Feels Like: 68 °F
Forecast: 55 / 69 °F
Wind: 9 mph from Northwest

Location: Peterborough Airport

Current Time: Jul 30, 2014 at 3:27:58 PM

Latest Report: Jul 30, 2014 at 3:00 PM


Visibility: 9 mi

Pressure: 29.93 "Hg

Humidity: 69%

Dew point: 57 °F

Location of PeterboroughLocation

Historic Weather in Peterborough — Graph

°F

Peterborough temperature yesterday

Maximum temperature yesterday: 70 °F (at 2:00 PM)
Minimum temperature yesterday: 52 °F (at 6:00 AM)
Average temperature yesterday: 62 °F

Past Weeks' High & Low Weather Summary

 TemperatureHumidityPressure
High82 °F (Jul 22, 12:00 PM)100% (Jul 17, 1:00 AM)30.25 "Hg (Jul 17, 1:00 AM)
Low45 °F (Jul 17, 6:00 AM)36% (Jul 18, 2:00 PM)29.63 "Hg (Jul 27, 5:00 PM)
Average64 °F78%29.96 "Hg
* Reported Jul 15 1:00 PM — Jul 30 1:00 PM, Peterborough, Weather by CustomWeather, © 2014

Note: Actual official high and low records may vary slightly from our data, if they occured in-between our weather recording intervals... More about our weather records

Advertising

Peterborough weather history for previous 24 hours

 ConditionsComfort  
Time TempWeatherWind HumidityBarometerVisibility
1:00 PM
Jul 30
72 °FPassing clouds.3 mph53%29.93 "Hg9 mi
12:00 PM70 °FPassing clouds.8 mph60%29.94 "Hg9 mi
11:00 AM66 °FBroken clouds.5 mph78%29.96 "Hg9 mi
10:00 AM63 °FPartly sunny.5 mph88%29.96 "Hg9 mi
9:47 AM63 °FPartly sunny.3 mph88%29.96 "Hg9 mi
9:03 AM59 °FMostly cloudy.2 mph100%29.96 "Hg7 mi
8:45 AM59 °FFog.No wind100%29.96 "Hg6 mi
8:03 AM57 °FFog.2 mph100%29.96 "Hg5 mi
8:00 AM57 °FFog.3 mph100%29.96 "Hg6 mi
7:00 AM54 °FFog.No wind100%29.95 "Hg1 mi
6:51 AM54 °FFog.No wind100%29.95 "Hg1 mi
6:00 AM52 °FFog.No wind100%29.94 "Hg0 mi
5:03 AM54 °FFog.3 mph94%29.93 "Hg5 mi
4:00 AM55 °FFog.2 mph94%29.93 "Hg1 mi
3:59 AM55 °FFog.2 mph94%29.93 "Hg1 mi
3:00 AM57 °FOvercast.2 mph94%29.93 "Hg9 mi
2:00 AM57 °FOvercast.3 mph94%29.93 "Hg9 mi
1:00 AM57 °FOvercast.5 mph94%29.95 "Hg9 mi
12:00 AM57 °FMostly cloudy.3 mph94%29.95 "Hg9 mi
11:04 PM
Jul 29
59 °FMostly cloudy.5 mph88%29.95 "Hg9 mi
10:00 PM61 °FOvercast.2 mph83%29.96 "Hg9 mi
9:00 PM61 °FLight rain. More clouds than sun.2 mph88%29.95 "Hg9 mi
8:45 PM61 °FLight rain. Overcast.3 mph83%29.95 "Hg9 mi
8:00 PM63 °FMostly cloudy.3 mph73%29.95 "Hg9 mi
7:00 PM64 °FOvercast.3 mph68%29.94 "Hg9 mi
6:00 PM66 °FMostly cloudy.5 mph64%29.93 "Hg9 mi
5:00 PM68 °FScattered clouds.7 mph56%29.91 "Hg9 mi
4:00 PM70 °FPassing clouds.8 mph50%29.91 "Hg9 mi
3:00 PM68 °FMostly cloudy.13 mph60%29.91 "Hg9 mi
Weather by CustomWeather, © 2014

See weather overviewHow to use our weather pages